Faith, SD

10:57 AM MDT on May 21, 2018 (GMT -0600)
Faith

Weather History for KD07 - December, 2012

Change the Weather History Date:

Sunday, December 9, 2012

  Actual Average Record
Temperature  
Mean Temperature 1 °F 22 °F  
Max Temperature 8 °F 31 °F 60 °F (2006)
Min Temperature -7 °F 12 °F -10 °F (2013)
Degree Days  
Heating Degree Days 64 43  
Month to date heating degree days 194 380  
Since 1 July heating degree days 1828 2163  
Cooling Degree Days 0 0  
Month to date cooling degree days 0 0  
Year to date cooling degree days 971 635  
Moisture  
Dew Point -2 °F    
Average Humidity 82    
Maximum Humidity 91    
Minimum Humidity 73    
Precipitation  
Precipitation 0.06 in 0.02 in 0.10 in (2004)
Month to date precipitation 100.10 0.10  
Year to date precipitation 112.67 17.36  
Sea Level Pressure  
Sea Level Pressure 30.37 in    
Wind  
Wind Speed 17 mph (WNW)    
Max Wind Speed 36 mph    
Max Gust Speed 44 mph    
T = Trace of Precipitation, MM = Missing Value Source: NWS Daily Summary

Daily Weather History Graph

Daily Weather History Graph

Search for Another Location

Airport or City:

Astronomy

Dec. 09, 2012 Rise Set
Actual Time 7:15 AM MST 4:06 PM MST
Civil Twilight 6:41 AM MST 4:39 PM MST
Nautical Twilight 6:04 AM MST 5:16 PM MST
Astronomical Twilight 5:28 AM MST 5:52 PM MST
Moon 2:42 AM MST (12/9) 1:21 PM MST (12/9)
Length of Visible Light 9h 58m
Length of Day
8h 51m
Waning Crescent, 18% of the Moon is Illuminated
Dec 9
Waning Crescent
Dec 13
New
Dec 19
First Quarter
Dec 28
Full
Jan 4
Last Quarter

Hourly Weather History & Observations

Time (MST) Temp. Windchill Dew Point Humidity Pressure Visibility Wind Dir Wind Speed Gust Speed Precip Events Conditions
12:56 AM 7.0 °F -14.5 °F 3.0 °F 84% 30.17 in - North 24.2 mph 33.4 mph 0.01 in   Unknown
1:56 AM 6.1 °F -17.2 °F 3.0 °F 87% 30.21 in - North 28.8 mph 34.5 mph 0.02 in   Unknown
2:56 AM 6.1 °F -18.9 °F 1.9 °F 83% 30.22 in - North 34.5 mph 40.3 mph 0.01 in   Unknown
3:56 AM 6.1 °F -18.6 °F 3.0 °F 87% 30.26 in - NNW 33.4 mph 39.1 mph 0.01 in   Unknown
4:56 AM 5.0 °F -19.0 °F 1.0 °F 84% 30.30 in - North 29.9 mph 40.3 mph 0.01 in   Unknown
5:56 AM 5.0 °F -16.7 °F 1.0 °F 84% 30.35 in - NNW 23.0 mph 32.2 mph N/A   Unknown
6:56 AM 3.9 °F -19.4 °F -0.0 °F 84% 30.38 in - NNW 26.5 mph 33.4 mph N/A   Unknown
7:56 AM 1.9 °F -19.8 °F -2.0 °F 83% 30.45 in - NNW 20.7 mph - N/A   Unknown
8:56 AM 1.0 °F -18.7 °F -4.0 °F 79% 30.50 in - NW 16.1 mph - N/A   Unknown
9:56 AM 3.0 °F -16.7 °F -2.0 °F 80% 30.51 in - NNW 17.3 mph - N/A   Unknown
10:56 AM 3.9 °F -16.1 °F -0.9 °F 80% 30.51 in - NW 18.4 mph - N/A   Unknown
12:56 PM 7.0 °F -11.0 °F -0.0 °F 73% 30.48 in - NW 16.1 mph - N/A   Unknown
1:56 PM 8.1 °F -7.0 °F 1.0 °F 73% 30.46 in - NW 11.5 mph - N/A   Unknown
2:56 PM 6.1 °F -6.8 °F 1.0 °F 80% 30.46 in - WNW 8.1 mph - N/A   Unknown
3:56 PM 3.0 °F -8.0 °F -0.9 °F 84% 30.45 in - West 5.8 mph - N/A   Unknown
4:56 PM 1.0 °F -12.9 °F -2.9 °F 83% 30.45 in - West 8.1 mph - N/A   Unknown
5:56 PM -0.0 °F -9.9 °F -2.9 °F 88% 30.42 in - SW 4.6 mph - N/A   Unknown
6:56 PM -2.0 °F -16.6 °F -6.0 °F 83% 30.39 in - SW 8.1 mph - N/A   Unknown
7:56 PM -2.9 °F -15.0 °F -6.0 °F 87% 30.37 in - SSW 5.8 mph - N/A   Unknown
8:56 PM -2.9 °F -20.8 °F -7.1 °F 82% 30.33 in - South 11.5 mph - N/A   Unknown
9:56 PM -2.9 °F -21.6 °F -7.1 °F 82% 30.28 in - SSW 12.7 mph - N/A   Unknown
10:56 PM -5.1 °F -27.2 °F -8.0 °F 87% 30.25 in - South 17.3 mph - N/A   Unknown
11:56 PM -5.1 °F -27.2 °F -8.0 °F 87% 30.20 in - South 17.3 mph - N/A   Unknown